Location: Luz Observatory
(34.5000°N, 117.2833°W)
Time: 05:46:12
(UTC-08:00)

Okean 3 Rocket - Visible Passes

Search period start: 19 December 2014 00:00
Search period end: 29 December 2014 00:00
Orbit: 617 x 645 km, 82.5° (Epoch: 18 December)

Date Brightness Start Highest point End Pass type
(mag) Time Alt. Az. Time Alt. Az. Time Alt. Az.
19 Dec 5.2 04:31:29 15° NNE 04:34:40 33° ENE 04:38:44 10° SE visible
19 Dec 5.1 06:09:32 10° NW 06:12:27 17° W 06:15:22 10° SW visible
19 Dec 4.6 17:00:24 10° SE 17:04:06 26° E 17:07:51 10° NNE visible
19 Dec 6.1 18:38:45 10° SW 18:42:09 21° WNW 18:45:36 10° NNW visible
20 Dec 3.7 04:53:41 29° N 04:55:58 74° E 05:00:27 10° SSE visible
20 Dec 3.7 17:20:48 10° S 17:25:10 58° E 17:29:36 10° NNE visible
21 Dec 6.6 03:38:27 12° ENE 03:38:43 12° ENE 03:40:23 10° E visible
21 Dec 3.8 05:15:56 39° NW 05:17:08 49° W 05:21:27 10° SSW visible
21 Dec 4.1 17:41:56 10° SSW 17:46:21 62° W 17:50:50 10° N visible
22 Dec 5.8 04:00:42 24° E 04:00:42 24° E 04:03:53 10° SE visible
22 Dec 4.7 05:38:11 23° W 05:38:11 23° W 05:41:41 10° SW visible
22 Dec 5.6 18:03:48 10° SW 18:07:40 28° WNW 18:11:35 10° NNW visible
23 Dec 4.9 04:22:58 37° SE 04:22:58 37° SE 04:25:55 10° SSE visible
23 Dec 6.5 18:26:50 10° WSW 18:29:07 14° WNW 18:31:26 10° NW visible
24 Dec 5.1 04:45:13 26° S 04:45:13 26° S 04:47:12 10° S visible
24 Dec 3.7 17:07:28 10° S 17:11:57 86° W 17:16:29 10° N visible
25 Dec 5.9 05:07:27 12° SSW 05:07:27 12° SSW 05:07:46 10° SSW visible
25 Dec 5.1 17:29:02 10° SSW 17:33:12 38° W 17:37:27 10° N visible
26 Dec 6.4 17:51:27 10° WSW 17:54:36 19° WNW 17:57:47 10° NNW visible
